History Data

Date (GMT-7:00) CPM ACPM uSv/h Latitude Longitude Altitude CO CO2 TVOC HCHO Air Pressure Temperature Humidity Type
2026-05-09 06:11:40 12 17.80 0.060000 41.649648 41.62752893 0 0 0 0 0 0 0 0 STD5.60
2026-05-09 06:06:38 25 20.00 0.125000 41.649648 41.62752893 0 0 0 0 0 0 0 0 STD5.60
2026-05-09 06:01:45 20 18.00 0.100000 41.649648 41.62752893 0 0 0 0 0 0 0 0 STD5.60
2026-05-09 05:56:34 14 14.80 0.070000 41.649648 41.62752893 0 0 0 0 0 0 0 0 STD5.60
2026-05-09 05:51:32 13 15.70 0.065000 41.649648 41.62752893 0 0 0 0 0 0 0 0 STD5.60
2026-05-09 05:46:30 21 17.70 0.105000 41.649648 41.62752893 0 0 0 0 0 0 0 0 STD5.60
2026-05-09 05:41:28 19 17.40 0.095000 41.649648 41.62752893 0 0 0 0 0 0 0 0 STD5.60
2026-05-09 05:36:26 19 17.80 0.095000 41.649648 41.62752893 0 0 0 0 0 0 0 0 STD5.60
2026-05-09 05:31:24 22 19.10 0.110000 41.649648 41.62752893 0 0 0 0 0 0 0 0 STD5.60
2026-05-09 05:26:22 16 19.90 0.080000 41.649648 41.62752893 0 0 0 0 0 0 0 0 STD5.60
2026-05-09 05:21:19 21 18.30 0.105000 41.649648 41.62752893 0 0 0 0 0 0 0 0 STD5.60
2026-05-09 05:16:16 22 16.50 0.110000 41.649648 41.62752893 0 0 0 0 0 0 0 0 STD5.60
2026-05-09 05:11:14 17 16.20 0.085000 41.649648 41.62752893 0 0 0 0 0 0 0 0 STD5.60
2026-05-09 05:06:12 14 18.20 0.070000 41.649648 41.62752893 0 0 0 0 0 0 0 0 STD5.60
2026-05-09 05:01:10 21 18.90 0.105000 41.649648 41.62752893 0 0 0 0 0 0 0 0 STD5.60
2026-05-09 04:56:08 22 18.10 0.110000 41.649648 41.62752893 0 0 0 0 0 0 0 0 STD5.60
2026-05-09 04:51:06 24 18.10 0.120000 41.649648 41.62752893 0 0 0 0 0 0 0 0 STD5.60
2026-05-09 04:46:04 21 16.90 0.105000 41.649648 41.62752893 0 0 0 0 0 0 0 0 STD5.60
2026-05-09 04:41:02 15 18.40 0.075000 41.649648 41.62752893 0 0 0 0 0 0 0 0 STD5.60
2026-05-09 04:36:00 17 19.70 0.085000 41.649648 41.62752893 0 0 0 0 0 0 0 0 STD5.60
2026-05-09 04:30:58 19 16.80 0.095000 41.649648 41.62752893 0 0 0 0 0 0 0 0 STD5.60
2026-05-09 04:25:56 18 16.10 0.090000 41.649648 41.62752893 0 0 0 0 0 0 0 0 STD5.60
2026-05-09 04:20:54 10 18.60 0.050000 41.649648 41.62752893 0 0 0 0 0 0 0 0 STD5.60
2026-05-09 04:15:49 19 18.40 0.095000 41.649648 41.62752893 0 0 0 0 0 0 0 0 STD5.60
2026-05-09 04:10:47 17 18.30 0.085000 41.649648 41.62752893 0 0 0 0 0 0 0 0 STD5.60
2026-05-09 04:05:45 20 18.20 0.100000 41.649648 41.62752893 0 0 0 0 0 0 0 0 STD5.60
2026-05-09 04:00:43 17 15.70 0.085000 41.649648 41.62752893 0 0 0 0 0 0 0 0 STD5.60
2026-05-09 03:55:41 12 15.10 0.060000 41.649648 41.62752893 0 0 0 0 0 0 0 0 STD5.60
2026-05-09 03:50:39 20 15.90 0.100000 41.649648 41.62752893 0 0 0 0 0 0 0 0 STD5.60
2026-05-09 03:45:37 9 17.50 0.045000 41.649648 41.62752893 0 0 0 0 0 0 0 0 STD5.60
2026-05-09 03:40:35 13 19.20 0.065000 41.649648 41.62752893 0 0 0 0 0 0 0 0 STD5.60
2026-05-09 03:35:34 26 20.00 0.130000 41.649648 41.62752893 0 0 0 0 0 0 0 0 STD5.60
2026-05-09 03:30:32 13 17.60 0.065000 41.649648 41.62752893 0 0 0 0 0 0 0 0 STD5.60
2026-05-09 03:25:30 17 15.50 0.085000 41.649648 41.62752893 0 0 0 0 0 0 0 0 STD5.60
2026-05-09 03:20:28 14 16.60 0.070000 41.649648 41.62752893 0 0 0 0 0 0 0 0 STD5.60
2026-05-09 03:15:22 19 16.10 0.095000 41.649648 41.62752893 0 0 0 0 0 0 0 0 STD5.60
2026-05-09 03:10:20 13 15.70 0.065000 41.649648 41.62752893 0 0 0 0 0 0 0 0 STD5.60
2026-05-09 03:05:18 12 15.60 0.060000 41.649648 41.62752893 0 0 0 0 0 0 0 0 STD5.60
2026-05-09 03:00:18 17 17.10 0.085000 41.649648 41.62752893 0 0 0 0 0 0 0 0 STD5.60
2026-05-09 02:55:14 15 16.60 0.075000 41.649648 41.62752893 0 0 0 0 0 0 0 0 STD5.60
2026-05-09 02:50:12 19 15.50 0.095000 41.649648 41.62752893 0 0 0 0 0 0 0 0 STD5.60
2026-05-09 02:45:10 13 17.30 0.065000 41.649648 41.62752893 0 0 0 0 0 0 0 0 STD5.60
2026-05-09 02:40:08 13 18.00 0.065000 41.649648 41.62752893 0 0 0 0 0 0 0 0 STD5.60
2026-05-09 02:35:06 18 18.10 0.090000 41.649648 41.62752893 0 0 0 0 0 0 0 0 STD5.60
2026-05-09 02:30:04 21 18.00 0.105000 41.649648 41.62752893 0 0 0 0 0 0 0 0 STD5.60
2026-05-09 02:25:02 13 18.30 0.065000 41.649648 41.62752893 0 0 0 0 0 0 0 0 STD5.60
2026-05-09 02:20:00 22 19.00 0.110000 41.649648 41.62752893 0 0 0 0 0 0 0 0 STD5.60
2026-05-09 02:14:55 15 19.70 0.075000 41.649648 41.62752893 0 0 0 0 0 0 0 0 STD5.60
2026-05-09 02:09:53 29 18.50 0.145000 41.649648 41.62752893 0 0 0 0 0 0 0 0 STD5.60
2026-05-09 02:04:51 18 17.20 0.090000 41.649648 41.62752893 0 0 0 0 0 0 0 0 STD5.60
2026-05-09 01:59:49 22 18.60 0.110000 41.649648 41.62752893 0 0 0 0 0 0 0 0 STD5.60
2026-05-09 01:54:47 15 16.30 0.075000 41.649648 41.62752893 0 0 0 0 0 0 0 0 STD5.60
2026-05-09 01:49:44 12 15.70 0.060000 41.649648 41.62752893 0 0 0 0 0 0 0 0 STD5.60
2026-05-09 01:44:42 12 18.40 0.060000 41.649648 41.62752893 0 0 0 0 0 0 0 0 STD5.60
2026-05-09 01:39:40 9 18.00 0.045000 41.649648 41.62752893 0 0 0 0 0 0 0 0 STD5.60
2026-05-09 01:34:39 17 16.40 0.085000 41.649648 41.62752893 0 0 0 0 0 0 0 0 STD5.60
2026-05-09 01:29:36 15 18.40 0.075000 41.649648 41.62752893 0 0 0 0 0 0 0 0 STD5.60
2026-05-09 01:24:34 21 20.70 0.105000 41.649648 41.62752893 0 0 0 0 0 0 0 0 STD5.60
2026-05-09 01:19:32 16 19.70 0.080000 41.649648 41.62752893 0 0 0 0 0 0 0 0 STD5.60
2026-05-09 01:14:27 16 19.20 0.080000 41.649648 41.62752893 0 0 0 0 0 0 0 0 STD5.60
2026-05-09 01:09:25 21 19.30 0.105000 41.649648 41.62752893 0 0 0 0 0 0 0 0 STD5.60
2026-05-09 01:04:23 15 16.80 0.075000 41.649648 41.62752893 0 0 0 0 0 0 0 0 STD5.60
2026-05-09 00:59:21 19 15.60 0.095000 41.649648 41.62752893 0 0 0 0 0 0 0 0 STD5.60
2026-05-09 00:54:19 23 16.30 0.115000 41.649648 41.62752893 0 0 0 0 0 0 0 0 STD5.60
2026-05-09 00:49:17 20 17.10 0.100000 41.649648 41.62752893 0 0 0 0 0 0 0 0 STD5.60
2026-05-09 00:44:15 27 20.60 0.135000 41.649648 41.62752893 0 0 0 0 0 0 0 0 STD5.60
2026-05-09 00:39:13 23 20.20 0.115000 41.649648 41.62752893 0 0 0 0 0 0 0 0 STD5.60
2026-05-09 00:34:11 17 18.10 0.085000 41.649648 41.62752893 0 0 0 0 0 0 0 0 STD5.60
2026-05-09 00:29:09 22 19.20 0.110000 41.649648 41.62752893 0 0 0 0 0 0 0 0 STD5.60
2026-05-09 00:24:07 17 18.70 0.085000 41.649648 41.62752893 0 0 0 0 0 0 0 0 STD5.60
2026-05-09 00:19:05 23 15.90 0.115000 41.649648 41.62752893 0 0 0 0 0 0 0 0 STD5.60
2026-05-09 00:14:01 19 16.80 0.095000 41.649648 41.62752893 0 0 0 0 0 0 0 0 STD5.60
2026-05-09 00:08:59 19 17.30 0.095000 41.649648 41.62752893 0 0 0 0 0 0 0 0 STD5.60
2026-05-09 00:03:57 19 17.50 0.095000 41.649648 41.62752893 0 0 0 0 0 0 0 0 STD5.60
2026-05-08 23:58:55 21 19.80 0.105000 41.649648 41.62752893 0 0 0 0 0 0 0 0 STD5.60
2026-05-08 23:53:54 15 19.00 0.075000 41.649648 41.62752893 0 0 0 0 0 0 0 0 STD5.60
2026-05-08 23:48:52 23 17.30 0.115000 41.649648 41.62752893 0 0 0 0 0 0 0 0 STD5.60
2026-05-08 23:43:50 20 17.90 0.100000 41.649648 41.62752893 0 0 0 0 0 0 0 0 STD5.60
2026-05-08 23:38:48 22 18.70 0.110000 41.649648 41.62752893 0 0 0 0 0 0 0 0 STD5.60
2026-05-08 23:33:46 19 18.10 0.095000 41.649648 41.62752893 0 0 0 0 0 0 0 0 STD5.60
2026-05-08 23:28:44 15 18.50 0.075000 41.649648 41.62752893 0 0 0 0 0 0 0 0 STD5.60
2026-05-08 23:23:42 18 17.90 0.090000 41.649648 41.62752893 0 0 0 0 0 0 0 0 STD5.60
2026-05-08 23:18:40 8 16.80 0.040000 41.649648 41.62752893 0 0 0 0 0 0 0 0 STD5.60
2026-05-08 23:13:34 17 15.70 0.085000 41.649648 41.62752893 0 0 0 0 0 0 0 0 STD5.60
2026-05-08 23:08:32 14 16.80 0.070000 41.649648 41.62752893 0 0 0 0 0 0 0 0 STD5.60
2026-05-08 23:03:30 27 17.40 0.135000 41.649648 41.62752893 0 0 0 0 0 0 0 0 STD5.60
2026-05-08 22:58:28 14 16.20 0.070000 41.649648 41.62752893 0 0 0 0 0 0 0 0 STD5.60
2026-05-08 22:53:26 14 17.20 0.070000 41.649648 41.62752893 0 0 0 0 0 0 0 0 STD5.60
2026-05-08 22:48:24 21 15.70 0.105000 41.649648 41.62752893 0 0 0 0 0 0 0 0 STD5.60
2026-05-08 22:43:22 13 16.80 0.065000 41.649648 41.62752893 0 0 0 0 0 0 0 0 STD5.60
2026-05-08 22:38:20 22 18.00 0.110000 41.649648 41.62752893 0 0 0 0 0 0 0 0 STD5.60
2026-05-08 22:33:18 24 16.80 0.120000 41.649648 41.62752893 0 0 0 0 0 0 0 0 STD5.60
2026-05-08 22:28:16 19 17.40 0.095000 41.649648 41.62752893 0 0 0 0 0 0 0 0 STD5.60
2026-05-08 22:23:14 24 17.70 0.120000 41.649648 41.62752893 0 0 0 0 0 0 0 0 STD5.60
2026-05-08 22:18:12 14 18.00 0.070000 41.649648 41.62752893 0 0 0 0 0 0 0 0 STD5.60
2026-05-08 22:13:08 18 17.90 0.090000 41.649648 41.62752893 0 0 0 0 0 0 0 0 STD5.60
2026-05-08 22:08:06 19 16.50 0.095000 41.649648 41.62752893 0 0 0 0 0 0 0 0 STD5.60
2026-05-08 22:03:04 17 17.50 0.085000 41.649648 41.62752893 0 0 0 0 0 0 0 0 STD5.60
2026-05-08 21:58:02 20 18.40 0.100000 41.649648 41.62752893 0 0 0 0 0 0 0 0 STD5.60
2026-05-08 21:53:00 21 17.50 0.105000 41.649648 41.62752893 0 0 0 0 0 0 0 0 STD5.60
2026-05-08 21:47:58 23 19.30 0.115000 41.649648 41.62752893 0 0 0 0 0 0 0 0 STD5.60
2026-05-08 21:42:56 23 18.90 0.115000 41.649648 41.62752893 0 0 0 0 0 0 0 0 STD5.60
2026-05-08 21:37:54 20 17.00 0.100000 41.649648 41.62752893 0 0 0 0 0 0 0 0 STD5.60
2026-05-08 21:32:52 14 18.80 0.070000 41.649648 41.62752893 0 0 0 0 0 0 0 0 STD5.60
2026-05-08 21:27:50 25 18.70 0.125000 41.649648 41.62752893 0 0 0 0 0 0 0 0 STD5.60
2026-05-08 21:22:48 22 16.00 0.110000 41.649648 41.62752893 0 0 0 0 0 0 0 0 STD5.60
2026-05-08 21:17:46 21 17.80 0.105000 41.649648 41.62752893 0 0 0 0 0 0 0 0 STD5.60
2026-05-08 21:12:42 26 20.20 0.130000 41.649648 41.62752893 0 0 0 0 0 0 0 0 STD5.60
2026-05-08 21:07:40 22 17.20 0.110000 41.649648 41.62752893 0 0 0 0 0 0 0 0 STD5.60
2026-05-08 21:02:38 7 16.80 0.035000 41.649648 41.62752893 0 0 0 0 0 0 0 0 STD5.60
2026-05-08 20:57:36 20 18.80 0.100000 41.649648 41.62752893 0 0 0 0 0 0 0 0 STD5.60
2026-05-08 20:52:34 15 18.30 0.075000 41.649648 41.62752893 0 0 0 0 0 0 0 0 STD5.60
2026-05-08 20:47:32 19 17.00 0.095000 41.649648 41.62752893 0 0 0 0 0 0 0 0 STD5.60
2026-05-08 20:42:31 18 16.90 0.090000 41.649648 41.62752893 0 0 0 0 0 0 0 0 STD5.60
2026-05-08 20:37:28 13 18.40 0.065000 41.649648 41.62752893 0 0 0 0 0 0 0 0 STD5.60
2026-05-08 20:32:26 23 19.20 0.115000 41.649648 41.62752893 0 0 0 0 0 0 0 0 STD5.60
2026-05-08 20:27:24 20 18.30 0.100000 41.649648 41.62752893 0 0 0 0 0 0 0 0 STD5.60
2026-05-08 20:22:23 13 17.50 0.065000 41.649648 41.62752893 0 0 0 0 0 0 0 0 STD5.60
2026-05-08 20:17:20 20 17.00 0.100000 41.649648 41.62752893 0 0 0 0 0 0 0 0 STD5.60
2026-05-08 20:12:16 14 16.60 0.070000 41.649648 41.62752893 0 0 0 0 0 0 0 0 STD5.60
2026-05-08 20:07:14 25 17.20 0.125000 41.649648 41.62752893 0 0 0 0 0 0 0 0 STD5.60
2026-05-08 20:02:13 17 20.30 0.085000 41.649648 41.62752893 0 0 0 0 0 0 0 0 STD5.60
2026-05-08 19:57:10 26 20.10 0.130000 41.649648 41.62752893 0 0 0 0 0 0 0 0 STD5.60
2026-05-08 19:52:08 13 16.30 0.065000 41.649648 41.62752893 0 0 0 0 0 0 0 0 STD5.60
2026-05-08 19:47:06 11 16.20 0.055000 41.649648 41.62752893 0 0 0 0 0 0 0 0 STD5.60
2026-05-08 19:42:04 18 18.80 0.090000 41.649648 41.62752893 0 0 0 0 0 0 0 0 STD5.60
2026-05-08 19:37:02 19 17.60 0.095000 41.649648 41.62752893 0 0 0 0 0 0 0 0 STD5.60
2026-05-08 19:32:00 8 16.50 0.040000 41.649648 41.62752893 0 0 0 0 0 0 0 0 STD5.60
2026-05-08 19:26:58 19 18.60 0.095000 41.649648 41.62752893 0 0 0 0 0 0 0 0 STD5.60
2026-05-08 19:21:56 26 16.10 0.130000 41.649648 41.62752893 0 0 0 0 0 0 0 0 STD5.60
2026-05-08 19:16:54 13 16.20 0.065000 41.649648 41.62752893 0 0 0 0 0 0 0 0 STD5.60
2026-05-08 19:11:50 18 18.30 0.090000 41.649648 41.62752893 0 0 0 0 0 0 0 0 STD5.60
2026-05-08 19:06:48 23 17.60 0.115000 41.649648 41.62752893 0 0 0 0 0 0 0 0 STD5.60
2026-05-08 19:01:46 13 17.60 0.065000 41.649648 41.62752893 0 0 0 0 0 0 0 0 STD5.60
2026-05-08 18:56:44 15 17.20 0.075000 41.649648 41.62752893 0 0 0 0 0 0 0 0 STD5.60
2026-05-08 18:51:44 19 18.00 0.095000 41.649648 41.62752893 0 0 0 0 0 0 0 0 STD5.60
2026-05-08 18:46:40 20 19.80 0.100000 41.649648 41.62752893 0 0 0 0 0 0 0 0 STD5.60
2026-05-08 18:41:38 20 19.20 0.100000 41.649648 41.62752893 0 0 0 0 0 0 0 0 STD5.60
2026-05-08 18:36:36 24 16.30 0.120000 41.649648 41.62752893 0 0 0 0 0 0 0 0 STD5.60
2026-05-08 18:31:35 15 17.80 0.075000 41.649648 41.62752893 0 0 0 0 0 0 0 0 STD5.60
2026-05-08 18:26:32 24 18.00 0.120000 41.649648 41.62752893 0 0 0 0 0 0 0 0 STD5.60
2026-05-08 18:21:31 15 16.70 0.075000 41.649648 41.62752893 0 0 0 0 0 0 0 0 STD5.60
2026-05-08 18:16:29 18 16.80 0.090000 41.649648 41.62752893 0 0 0 0 0 0 0 0 STD5.60
2026-05-08 18:11:24 19 16.10 0.095000 41.649648 41.62752893 0 0 0 0 0 0 0 0 STD5.60
2026-05-08 18:06:22 16 17.40 0.080000 41.649648 41.62752893 0 0 0 0 0 0 0 0 STD5.60
2026-05-08 18:01:21 23 16.90 0.115000 41.649648 41.62752893 0 0 0 0 0 0 0 0 STD5.60
2026-05-08 17:56:18 16 18.00 0.080000 41.649648 41.62752893 0 0 0 0 0 0 0 0 STD5.60
2026-05-08 17:51:17 18 18.60 0.090000 41.649648 41.62752893 0 0 0 0 0 0 0 0 STD5.60
2026-05-08 17:46:15 24 19.20 0.120000 41.649648 41.62752893 0 0 0 0 0 0 0 0 STD5.60
2026-05-08 17:41:14 18 19.70 0.090000 41.649648 41.62752893 0 0 0 0 0 0 0 0 STD5.60
2026-05-08 17:36:11 22 16.80 0.110000 41.649648 41.62752893 0 0 0 0 0 0 0 0 STD5.60
2026-05-08 17:31:09 15 17.90 0.075000 41.649648 41.62752893 0 0 0 0 0 0 0 0 STD5.60
2026-05-08 17:26:07 27 17.60 0.135000 41.649648 41.62752893 0 0 0 0 0 0 0 0 STD5.60
2026-05-08 17:21:05 15 16.30 0.075000 41.649648 41.62752893 0 0 0 0 0 0 0 0 STD5.60
2026-05-08 17:16:03 20 19.10 0.100000 41.649648 41.62752893 0 0 0 0 0 0 0 0 STD5.60
2026-05-08 17:10:59 20 17.40 0.100000 41.649648 41.62752893 0 0 0 0 0 0 0 0 STD5.60
2026-05-08 17:05:57 17 15.90 0.085000 41.649648 41.62752893 0 0 0 0 0 0 0 0 STD5.60
2026-05-08 17:00:55 16 19.40 0.080000 41.649648 41.62752893 0 0 0 0 0 0 0 0 STD5.60
2026-05-08 16:55:53 21 18.60 0.105000 41.649648 41.62752893 0 0 0 0 0 0 0 0 STD5.60
2026-05-08 16:50:51 18 18.30 0.090000 41.649648 41.62752893 0 0 0 0 0 0 0 0 STD5.60
2026-05-08 16:45:49 26 17.70 0.130000 41.649648 41.62752893 0 0 0 0 0 0 0 0 STD5.60
2026-05-08 16:40:48 14 15.20 0.070000 41.649648 41.62752893 0 0 0 0 0 0 0 0 STD5.60
2026-05-08 16:35:45 24 14.90 0.120000 41.649648 41.62752893 0 0 0 0 0 0 0 0 STD5.60
2026-05-08 16:30:43 17 15.80 0.085000 41.649648 41.62752893 0 0 0 0 0 0 0 0 STD5.60
2026-05-08 16:25:42 23 18.60 0.115000 41.649648 41.62752893 0 0 0 0 0 0 0 0 STD5.60
2026-05-08 16:20:43 25 20.00 0.125000 41.649648 41.62752893 0 0 0 0 0 0 0 0 STD5.60
2026-05-08 16:15:38 24 19.90 0.120000 41.649648 41.62752893 0 0 0 0 0 0 0 0 STD5.60
2026-05-08 16:10:34 22 18.10 0.110000 41.649648 41.62752893 0 0 0 0 0 0 0 0 STD5.60
2026-05-08 16:05:32 18 16.70 0.090000 41.649648 41.62752893 0 0 0 0 0 0 0 0 STD5.60
2026-05-08 15:55:28 26 18.50 0.130000 41.649648 41.62752893 0 0 0 0 0 0 0 0 STD5.60
2026-05-08 15:50:26 17 16.80 0.085000 41.649648 41.62752893 0 0 0 0 0 0 0 0 STD5.60
2026-05-08 15:45:24 16 17.70 0.080000 41.649648 41.62752893 0 0 0 0 0 0 0 0 STD5.60
2026-05-08 15:40:22 15 18.60 0.075000 41.649648 41.62752893 0 0 0 0 0 0 0 0 STD5.60
2026-05-08 15:35:20 16 16.80 0.080000 41.649648 41.62752893 0 0 0 0 0 0 0 0 STD5.60
2026-05-08 15:30:18 17 15.80 0.085000 41.649648 41.62752893 0 0 0 0 0 0 0 0 STD5.60
2026-05-08 15:25:16 13 14.90 0.065000 41.649648 41.62752893 0 0 0 0 0 0 0 0 STD5.60
2026-05-08 15:20:15 16 16.30 0.080000 41.649648 41.62752893 0 0 0 0 0 0 0 0 STD5.60
2026-05-08 15:15:13 24 17.90 0.120000 41.649648 41.62752893 0 0 0 0 0 0 0 0 STD5.60
2026-05-08 15:09:57 17 16.40 0.085000 41.649648 41.62752893 0 0 0 0 0 0 0 0 STD5.60
2026-05-08 15:04:55 13 17.40 0.065000 41.649648 41.62752893 0 0 0 0 0 0 0 0 STD5.60
2026-05-08 14:59:53 15 18.80 0.075000 41.649648 41.62752893 0 0 0 0 0 0 0 0 STD5.60
2026-05-08 14:54:51 19 17.80 0.095000 41.649648 41.62752893 0 0 0 0 0 0 0 0 STD5.60
2026-05-08 14:49:49 15 17.50 0.075000 41.649648 41.62752893 0 0 0 0 0 0 0 0 STD5.60
2026-05-08 14:44:47 15 19.60 0.075000 41.649648 41.62752893 0 0 0 0 0 0 0 0 STD5.60
2026-05-08 14:39:45 18 19.50 0.090000 41.649648 41.62752893 0 0 0 0 0 0 0 0 STD5.60
2026-05-08 14:34:43 7 17.50 0.035000 41.649648 41.62752893 0 0 0 0 0 0 0 0 STD5.60
2026-05-08 14:29:41 10 19.60 0.050000 41.649648 41.62752893 0 0 0 0 0 0 0 0 STD5.60
2026-05-08 14:24:39 29 20.20 0.145000 41.649648 41.62752893 0 0 0 0 0 0 0 0 STD5.60
2026-05-08 14:19:38 18 17.00 0.090000 41.649648 41.62752893 0 0 0 0 0 0 0 0 STD5.60
2026-05-08 14:14:35 11 18.40 0.055000 41.649648 41.62752893 0 0 0 0 0 0 0 0 STD5.60
2026-05-08 14:09:31 23 18.80 0.115000 41.649648 41.62752893 0 0 0 0 0 0 0 0 STD5.60
2026-05-08 14:04:29 18 18.20 0.090000 41.649648 41.62752893 0 0 0 0 0 0 0 0 STD5.60
2026-05-08 13:59:27 29 18.70 0.145000 41.649648 41.62752893 0 0 0 0 0 0 0 0 STD5.60
2026-05-08 13:54:25 19 18.60 0.095000 41.649648 41.62752893 0 0 0 0 0 0 0 0 STD5.60
2026-05-08 13:49:23 17 19.90 0.085000 41.649648 41.62752893 0 0 0 0 0 0 0 0 STD5.60
2026-05-08 13:44:21 15 18.10 0.075000 41.649648 41.62752893 0 0 0 0 0 0 0 0 STD5.60
2026-05-08 13:39:19 18 17.50 0.090000 41.649648 41.62752893 0 0 0 0 0 0 0 0 STD5.60
2026-05-08 13:34:17 18 18.40 0.090000 41.649648 41.62752893 0 0 0 0 0 0 0 0 STD5.60
2026-05-08 13:29:15 15 16.20 0.075000 41.649648 41.62752893 0 0 0 0 0 0 0 0 STD5.60
2026-05-08 13:24:13 16 15.80 0.080000 41.649648 41.62752893 0 0 0 0 0 0 0 0 STD5.60
2026-05-08 13:19:11 20 16.90 0.100000 41.649648 41.62752893 0 0 0 0 0 0 0 0 STD5.60
2026-05-08 13:14:09 16 16.90 0.080000 41.649648 41.62752893 0 0 0 0 0 0 0 0 STD5.60
2026-05-08 13:09:05 17 18.80 0.085000 41.649648 41.62752893 0 0 0 0 0 0 0 0 STD5.60
2026-05-08 13:04:03 21 19.80 0.105000 41.649648 41.62752893 0 0 0 0 0 0 0 0 STD5.60
2026-05-08 12:59:01 21 19.40 0.105000 41.649648 41.62752893 0 0 0 0 0 0 0 0 STD5.60
2026-05-08 12:53:59 14 18.10 0.070000 41.649648 41.62752893 0 0 0 0 0 0 0 0 STD5.60
2026-05-08 12:48:57 19 16.80 0.095000 41.649648 41.62752893 0 0 0 0 0 0 0 0 STD5.60
2026-05-08 12:43:55 14 16.90 0.070000 41.649648 41.62752893 0 0 0 0 0 0 0 0 STD5.60
2026-05-08 12:38:53 18 16.40 0.090000 41.649648 41.62752893 0 0 0 0 0 0 0 0 STD5.60
2026-05-08 12:33:51 21 18.10 0.105000 41.649648 41.62752893 0 0 0 0 0 0 0 0 STD5.60
2026-05-08 12:28:49 16 19.60 0.080000 41.649648 41.62752893 0 0 0 0 0 0 0 0 STD5.60
2026-05-08 12:23:47 19 16.10 0.095000 41.649648 41.62752893 0 0 0 0 0 0 0 0 STD5.60
2026-05-08 12:18:45 19 15.10 0.095000 41.649648 41.62752893 0 0 0 0 0 0 0 0 STD5.60
2026-05-08 12:13:43 17 17.30 0.085000 41.649648 41.62752893 0 0 0 0 0 0 0 0 STD5.60
2026-05-08 12:08:39 23 19.90 0.115000 41.649648 41.62752893 0 0 0 0 0 0 0 0 STD5.60
2026-05-08 12:03:37 10 21.20 0.050000 41.649648 41.62752893 0 0 0 0 0 0 0 0 STD5.60
2026-05-08 11:58:35 16 17.30 0.080000 41.649648 41.62752893 0 0 0 0 0 0 0 0 STD5.60
2026-05-08 11:53:33 15 17.40 0.075000 41.649648 41.62752893 0 0 0 0 0 0 0 0 STD5.60
2026-05-08 11:48:31 21 19.60 0.105000 41.649648 41.62752893 0 0 0 0 0 0 0 0 STD5.60
2026-05-08 11:43:29 16 18.60 0.080000 41.649648 41.62752893 0 0 0 0 0 0 0 0 STD5.60
2026-05-08 11:38:27 20 17.00 0.100000 41.649648 41.62752893 0 0 0 0 0 0 0 0 STD5.60
2026-05-08 11:33:25 16 16.90 0.080000 41.649648 41.62752893 0 0 0 0 0 0 0 0 STD5.60
2026-05-08 11:28:23 18 18.20 0.090000 41.649648 41.62752893 0 0 0 0 0 0 0 0 STD5.60
2026-05-08 11:23:22 20 18.70 0.100000 41.649648 41.62752893 0 0 0 0 0 0 0 0 STD5.60
2026-05-08 11:18:19 20 18.30 0.100000 41.649648 41.62752893 0 0 0 0 0 0 0 0 STD5.60
2026-05-08 11:13:15 14 18.40 0.070000 41.649648 41.62752893 0 0 0 0 0 0 0 0 STD5.60
2026-05-08 11:08:01 11 17.80 0.055000 41.649648 41.62752893 0 0 0 0 0 0 0 0 STD5.60
2026-05-08 11:02:59 10 17.30 0.050000 41.649648 41.62752893 0 0 0 0 0 0 0 0 STD5.60
2026-05-08 10:57:57 17 18.90 0.085000 41.649648 41.62752893 0 0 0 0 0 0 0 0 STD5.60
2026-05-08 10:52:55 15 18.00 0.075000 41.649648 41.62752893 0 0 0 0 0 0 0 0 STD5.60
2026-05-08 10:47:53 21 17.60 0.105000 41.649648 41.62752893 0 0 0 0 0 0 0 0 STD5.60
2026-05-08 10:42:51 21 18.70 0.105000 41.649648 41.62752893 0 0 0 0 0 0 0 0 STD5.60
2026-05-08 10:37:49 20 17.60 0.100000 41.649648 41.62752893 0 0 0 0 0 0 0 0 STD5.60
2026-05-08 10:32:47 20 17.80 0.100000 41.649648 41.62752893 0 0 0 0 0 0 0 0 STD5.60
2026-05-08 10:27:45 18 20.90 0.090000 41.649648 41.62752893 0 0 0 0 0 0 0 0 STD5.60
2026-05-08 10:22:43 14 19.00 0.070000 41.649648 41.62752893 0 0 0 0 0 0 0 0 STD5.60
2026-05-08 10:17:42 18 8.10 0.090000 41.649648 41.62752893 0 0 0 0 0 0 0 0 STD5.60
2026-05-05 07:34:20 12 18.60 0.060000 41.649648 41.62752893 0 0 0 0 0 0 0 0 STD5.60
2026-05-05 07:29:18 22 18.20 0.110000 41.649648 41.62752893 0 0 0 0 0 0 0 0 STD5.60
2026-05-05 07:24:14 20 18.80 0.100000 41.649648 41.62752893 0 0 0 0 0 0 0 0 STD5.60
2026-05-05 07:19:12 23 21.10 0.115000 41.649648 41.62752893 0 0 0 0 0 0 0 0 STD5.60
2026-05-05 07:14:10 19 19.20 0.095000 41.649648 41.62752893 0 0 0 0 0 0 0 0 STD5.60
2026-05-05 07:09:08 19 17.40 0.095000 41.649648 41.62752893 0 0 0 0 0 0 0 0 STD5.60
2026-05-05 07:04:06 18 19.30 0.090000 41.649648 41.62752893 0 0 0 0 0 0 0 0 STD5.60
2026-05-05 06:59:04 15 19.40 0.075000 41.649648 41.62752893 0 0 0 0 0 0 0 0 STD5.60
2026-05-05 06:54:02 22 17.80 0.110000 41.649648 41.62752893 0 0 0 0 0 0 0 0 STD5.60
2026-05-05 06:49:00 15 17.70 0.075000 41.649648 41.62752893 0 0 0 0 0 0 0 0 STD5.60
2026-05-05 06:43:57 21 18.10 0.105000 41.649648 41.62752893 0 0 0 0 0 0 0 0 STD5.60
2026-05-05 06:38:55 22 18.50 0.110000 41.649648 41.62752893 0 0 0 0 0 0 0 0 STD5.60
2026-05-05 06:33:53 12 18.50 0.060000 41.649648 41.62752893 0 0 0 0 0 0 0 0 STD5.60
2026-05-05 06:28:51 25 18.50 0.125000 41.649648 41.62752893 0 0 0 0 0 0 0 0 STD5.60
2026-05-05 06:23:47 11 18.10 0.055000 41.649648 41.62752893 0 0 0 0 0 0 0 0 STD5.60
2026-05-05 06:18:44 18 18.80 0.090000 41.649648 41.62752893 0 0 0 0 0 0 0 0 STD5.60
2026-05-05 06:13:42 20 19.50 0.100000 41.649648 41.62752893 0 0 0 0 0 0 0 0 STD5.60
2026-05-05 06:08:40 20 19.60 0.100000 41.649648 41.62752893 0 0 0 0 0 0 0 0 STD5.60
2026-05-05 06:03:38 21 19.50 0.105000 41.649648 41.62752893 0 0 0 0 0 0 0 0 STD5.60
2026-05-05 05:58:36 15 18.40 0.075000 41.649648 41.62752893 0 0 0 0 0 0 0 0 STD5.60
2026-05-05 05:53:34 16 17.60 0.080000 41.649648 41.62752893 0 0 0 0 0 0 0 0 STD5.60
2026-05-05 05:48:31 16 18.20 0.080000 41.649648 41.62752893 0 0 0 0 0 0 0 0 STD5.60
2026-05-05 05:43:29 20 17.40 0.100000 41.649648 41.62752893 0 0 0 0 0 0 0 0 STD5.60
2026-05-05 05:38:27 16 17.00 0.080000 41.649648 41.62752893 0 0 0 0 0 0 0 0 STD5.60
2026-05-05 05:33:25 19 16.50 0.095000 41.649648 41.62752893 0 0 0 0 0 0 0 0 STD5.60
2026-05-05 05:28:23 19 16.90 0.095000 41.649648 41.62752893 0 0 0 0 0 0 0 0 STD5.60
2026-05-05 05:23:18 17 18.00 0.085000 41.649648 41.62752893 0 0 0 0 0 0 0 0 STD5.60
2026-05-05 05:18:16 15 17.60 0.075000 41.649648 41.62752893 0 0 0 0 0 0 0 0 STD5.60
2026-05-05 05:13:14 21 18.80 0.105000 41.649648 41.62752893 0 0 0 0 0 0 0 0 STD5.60
2026-05-05 05:08:12 25 19.00 0.125000 41.649648 41.62752893 0 0 0 0 0 0 0 0 STD5.60
2026-05-05 05:03:10 19 17.50 0.095000 41.649648 41.62752893 0 0 0 0 0 0 0 0 STD5.60
2026-05-05 04:58:08 20 17.50 0.100000 41.649648 41.62752893 0 0 0 0 0 0 0 0 STD5.60
2026-05-05 04:53:06 19 17.50 0.095000 41.649648 41.62752893 0 0 0 0 0 0 0 0 STD5.60
2026-05-05 04:48:03 22 15.60 0.110000 41.649648 41.62752893 0 0 0 0 0 0 0 0 STD5.60
2026-05-05 04:43:01 18 16.20 0.090000 41.649648 41.62752893 0 0 0 0 0 0 0 0 STD5.60
2026-05-05 04:37:58 22 17.80 0.110000 41.649648 41.62752893 0 0 0 0 0 0 0 0 STD5.60
2026-05-05 04:32:56 26 17.30 0.130000 41.649648 41.62752893 0 0 0 0 0 0 0 0 STD5.60
2026-05-05 04:27:54 17 19.80 0.085000 41.649648 41.62752893 0 0 0 0 0 0 0 0 STD5.60
2026-05-05 04:22:50 23 21.30 0.115000 41.649648 41.62752893 0 0 0 0 0 0 0 0 STD5.60
2026-05-05 04:17:48 21 18.90 0.105000 41.649648 41.62752893 0 0 0 0 0 0 0 0 STD5.60
2026-05-05 04:12:46 18 17.80 0.090000 41.649648 41.62752893 0 0 0 0 0 0 0 0 STD5.60
2026-05-05 04:07:44 19 16.90 0.095000 41.649648 41.62752893 0 0 0 0 0 0 0 0 STD5.60
2026-05-05 04:02:42 18 18.10 0.090000 41.649648 41.62752893 0 0 0 0 0 0 0 0 STD5.60
2026-05-05 03:57:40 15 18.20 0.075000 41.649648 41.62752893 0 0 0 0 0 0 0 0 STD5.60
2026-05-05 03:52:39 16 18.10 0.080000 41.649648 41.62752893 0 0 0 0 0 0 0 0 STD5.60
2026-05-05 03:47:36 21 20.00 0.105000 41.649648 41.62752893 0 0 0 0 0 0 0 0 STD5.60
2026-05-05 03:42:34 25 17.80 0.125000 41.649648 41.62752893 0 0 0 0 0 0 0 0 STD5.60
2026-05-05 03:37:32 18 15.70 0.090000 41.649648 41.62752893 0 0 0 0 0 0 0 0 STD5.60
2026-05-05 03:32:30 14 18.00 0.070000 41.649648 41.62752893 0 0 0 0 0 0 0 0 STD5.60
2026-05-05 03:27:28 21 18.70 0.105000 41.649648 41.62752893 0 0 0 0 0 0 0 0 STD5.60
2026-05-05 03:22:23 11 17.30 0.055000 41.649648 41.62752893 0 0 0 0 0 0 0 0 STD5.60
2026-05-05 03:17:21 12 16.50 0.060000 41.649648 41.62752893 0 0 0 0 0 0 0 0 STD5.60
2026-05-05 03:12:19 16 17.30 0.080000 41.649648 41.62752893 0 0 0 0 0 0 0 0 STD5.60
2026-05-05 03:07:16 30 17.90 0.150000 41.649648 41.62752893 0 0 0 0 0 0 0 0 STD5.60
2026-05-05 03:02:14 15 17.80 0.075000 41.649648 41.62752893 0 0 0 0 0 0 0 0 STD5.60
2026-05-05 02:57:12 17 18.10 0.085000 41.649648 41.62752893 0 0 0 0 0 0 0 0 STD5.60
2026-05-05 02:52:10 17 16.50 0.085000 41.649648 41.62752893 0 0 0 0 0 0 0 0 STD5.60
2026-05-05 02:47:08 14 14.70 0.070000 41.649648 41.62752893 0 0 0 0 0 0 0 0 STD5.60
2026-05-05 02:42:06 17 16.30 0.085000 41.649648 41.62752893 0 0 0 0 0 0 0 0 STD5.60
2026-05-05 02:37:04 16 19.30 0.080000 41.649648 41.62752893 0 0 0 0 0 0 0 0 STD5.60
2026-05-05 02:32:02 25 18.20 0.125000 41.649648 41.62752893 0 0 0 0 0 0 0 0 STD5.60
2026-05-05 02:26:59 15 15.20 0.075000 41.649648 41.62752893 0 0 0 0 0 0 0 0 STD5.60
2026-05-05 02:21:55 17 15.90 0.085000 41.649648 41.62752893 0 0 0 0 0 0 0 0 STD5.60
Geiger Counter World Map       A real time radiation map.     Copyright 2015 All rights reserved.